Location: Ravensburg
(47.7866°N, 9.6124°E)
Time: 02:45:55
(UTC+02:00)

Gurwin Techsat 1B - Pass Details

Date: 15 March 2026
Orbit: 809 x 812 km, 99.0° (Epoch: 14 April)

Event Time Altitude Azimuth Distance (km) Brightness Sun altitude
Rises 05:04:10 0° 20° (NNE) 3,341 12.3 -16.0°
Reaches altitude 10° 05:06:37 10° 26° (NNE) 2,405 11.6 -15.6°
Maximum altitude 05:11:43 45° 99° (E) 1,092 9.8 -14.7°
Drops below altitude 10° 05:16:46 10° 172° (S) 2,387 11.0 -13.9°
Sets 05:19:11 0° 179° (S) 3,314 11.7 -13.5°
